(386029) = 2007 EK23

Discovered at Mount Lemmon on 2007-03-10 by Mt. Lemmon Survey.

Orbit

Orbit type: Jupiter Trojan

Note: WebGL enabled browser required.

epoch2023-09-13.0
epoch JD2460200.5
perihelion date2020-12-02.96551
perihelion JD2459186.46551
argument of perihelion (°)232.81049
ascending node (°)21.38632
inclination (°)20.39010
eccentricity0.0810267
perihelion distance (AU)4.7911595
Tisserand w.r.t. Jupiter2.9
ΔV w.r.t. Earth (km/sec)13.7
semimajor axis (AU)5.2136004
mean anomaly (°)83.95566
mean daily motion (°/day)0.08279370
aphelion distance (AU)5.636
period (years)11.9
P-vector [x]-0.29053585
P-vector [y]-0.72975437
P-vector [z]-0.61890829
Q-vector [x]0.94839200
Q-vector [y]-0.13373471
Q-vector [z]-0.28751980
absolute magnitude14.0
phase slope0.15
uncertainty0
referenceMPO 779720
observations used161
oppositions10
arc length (days)10450
first opposition used1995
last opposition used2023
residual rms (arc-secs)0.79
perturbers coarse indicatorM-v
perturbers precise indicator003Ek
first observation date used1995-03-31.0
last observation date used2023-11-09.0
computer nameMPCLINUX
Minimum Orbit Intersection Distances (in AU)
for orbit epoch: 2460200.5, reference: E2023-VG7
Mercury4.33814
Venus4.09786
Earth3.81942
Mars3.28894
Jupiter0.45984
Saturn3.82506
Uranus13.4079
Neptune24.3563

Observations

150 total observations over interval: 1995 03 31.22937 – 2023 11 09.273513
These data are available for download (format description).

